Location: Gloden
(48.4833°N, 15.3167°E)
Time: 20:19:17
(UTC+00:00)

Cosmos 2098 Rocket - Pass Details

Date: 15 December 2019
Orbit: 368 x 1189 km, 82.9° (Epoch: 21 January)

Event Time Altitude Azimuth Distance (km) Brightness Sun altitude
Rises 05:33:54 0° 356° (N) 2,735 6.1 -10.9°
Reaches altitude 10° 05:35:55 10° 2° (N) 1,943 5.4 -10.6°
Maximum altitude 05:40:07 49° 79° (ENE) 900 4.3 -10.0°
Drops below altitude 10° 05:45:23 10° 154° (SSE) 2,439 6.9 -9.2°
Sets 05:48:10 0° 159° (SSE) 3,513 7.7 -8.7°
